Location: T�bingen+AIT
(48.5342°N, 9.0700°E)
Time: 22:29:57
(UTC+01:00)

NOSS 3-1 (C) - Pass Details

Date: 14 September 2017
Orbit: 815 x 1394 km, 63.4° (Epoch: 17 November)

Event Time Altitude Azimuth Distance (km) Brightness Sun altitude
Rises 22:11:58 0° 318° (NW) 3,938 8.0 -24.4°
Reaches altitude 10° 22:14:30 10° 317° (NW) 3,055 7.1 -24.7°
Maximum altitude 22:21:57 80° 232° (SW) 1,286 4.0 -25.7°
Enters shadow 22:24:38 47° 154° (SSE) 1,663 4.2 -26.0°
